Location: Lynch Observatory
(39.9540°N, 75.1861°W)
Time: 13:04:40
(UTC-04:00)

SO-50 - Visible Passes

Search period start: 16 April 2024 00:00
Search period end: 26 April 2024 00:00
Orbit: 611 x 656 km, 64.6° (Epoch: 16 April)

Date Brightness Start Highest point End Pass type
(mag) Time Alt. Az. Time Alt. Az. Time Alt. Az.
16 Apr ? 23:46:40 10° N 23:47:33 14° N 23:47:33 14° N visible
18 Apr ? 00:08:04 10° NNW 00:08:47 14° NNW 00:08:47 14° NNW visible
18 Apr ? 22:51:03 10° N 22:52:37 14° NNE 22:52:37 14° NNE visible
19 Apr ? 00:29:53 10° NW 00:30:02 11° NW 00:30:02 11° NW visible
19 Apr ? 23:12:04 10° NNW 23:13:54 20° N 23:13:54 20° N visible
20 Apr ? 23:33:36 10° NNW 23:35:11 21° NNW 23:35:11 21° NNW visible
21 Apr ? 22:16:13 10° N 22:19:05 18° NE 22:19:05 18° NE visible
21 Apr ? 23:55:33 10° NW 23:56:30 16° NW 23:56:30 16° NW visible
22 Apr ? 22:37:26 10° NNW 22:40:25 31° NNE 22:40:25 31° NNE visible
23 Apr ? 21:20:47 10° NNE 21:22:39 12° NE 21:24:21 10° ENE visible
23 Apr ? 22:59:07 10° NNW 23:01:46 35° NNW 23:01:46 35° NNW visible
24 Apr ? 21:41:26 10° N 21:45:01 23° NE 21:45:44 22° ENE visible
24 Apr ? 23:21:12 10° NW 23:23:10 23° WNW 23:23:10 23° WNW visible
25 Apr ? 22:02:49 10° NNW 22:07:09 48° NE 22:07:09 48° NE visible
25 Apr ? 23:44:05 10° WNW 23:44:35 12° WNW 23:44:35 12° WNW visible
